Robinson, IL

7:24 PM CDT on October 20, 2017 (GMT -0500)
Robinson Municipal

Weather History for KRSV - November, 2012

Change the Weather History Date:

Sunday, November 11, 2012

  Actual Average (KLWV) Record (KLWV)
Temperature  
Mean Temperature 61 °F -  
Max Temperature 68 °F 53 °F 78 °F (2010)
Min Temperature 54 °F 34 °F 22 °F (1991)
Degree Days  
Heating Degree Days 4    
Growing Degree Days 11 (Base 50)    
Moisture  
Dew Point 49 °F    
Average Humidity 61    
Maximum Humidity 100    
Minimum Humidity 51    
Precipitation  
Precipitation 0.28 in - - ()
Sea Level Pressure  
Sea Level Pressure 30.03 in    
Wind  
Wind Speed 15 mph (SSE)    
Max Wind Speed 28 mph    
Max Gust Speed 34 mph    
Visibility 10 miles    
Events Rain    
Averages and records for this station are not official NWS values.
T = Trace of Precipitation, MM = Missing Value Source: NWS Daily Summary

Daily Weather History Graph

Daily Weather History Graph

Search for Another Location

Airport or City:

Trip Planner

Search our weather history database for the weather conditions in past years. The results will help you decide how hot, cold, wet, or windy it might be!

Date:

Astronomy

Nov. 11, 2012 Rise Set
Actual Time 6:29 AM CST 4:39 PM CST
Civil Twilight 6:01 AM CST 5:07 PM CST
Nautical Twilight 5:29 AM CST 5:39 PM CST
Astronomical Twilight 4:57 AM CST 6:11 PM CST
Moon 3:44 AM CST (11/11) 3:01 PM CST (11/11)
Length of Visible Light 11h 06m
Length of Day
10h 09m
Waning Crescent, 7% of the Moon is Illuminated
Nov 11
Waning Crescent
Nov 13
New
Nov 20
First Quarter
Nov 28
Full
Dec 6
Last Quarter

Hourly Weather History & Observations

Time (CST) Temp. Dew Point Humidity Pressure Visibility Wind Dir Wind Speed Gust Speed Precip Events Conditions
12:15 AM 58.5 °F 46.0 °F 63% 30.09 in 10.0 mi SSE 9.2 mph - N/A   Clear
12:35 AM 58.8 °F 45.9 °F 62% 30.08 in 10.0 mi SSE 11.5 mph - N/A   Clear
12:55 AM 58.6 °F 45.9 °F 63% 30.08 in 10.0 mi SSE 9.2 mph - N/A   Clear
1:15 AM 59.0 °F 45.7 °F 61% 30.08 in 10.0 mi SSE 10.4 mph - N/A   Clear
1:35 AM 58.5 °F 45.5 °F 62% 30.08 in 10.0 mi SSE 10.4 mph - N/A   Clear
1:55 AM 59.0 °F 45.5 °F 61% 30.08 in 10.0 mi SSE 12.7 mph - N/A   Clear
2:15 AM 58.5 °F 45.5 °F 62% 30.09 in 10.0 mi SE 11.5 mph - N/A   Clear
2:35 AM 58.3 °F 45.3 °F 62% 30.09 in 10.0 mi SE 10.4 mph - N/A   Clear
2:55 AM 57.6 °F 45.5 °F 64% 30.10 in 10.0 mi SSE 10.4 mph - N/A   Clear
3:15 AM 58.1 °F 45.3 °F 62% 30.10 in 10.0 mi SSE 11.5 mph - N/A   Clear
3:35 AM 57.2 °F 45.1 °F 64% 30.10 in 10.0 mi SSE 10.4 mph - N/A   Clear
3:55 AM 57.4 °F 45.1 °F 64% 30.10 in 10.0 mi SE 10.4 mph - N/A   Clear
4:15 AM 57.2 °F 45.1 °F 64% 30.10 in 10.0 mi SE 11.5 mph - N/A   Clear
4:35 AM 56.8 °F 44.8 °F 64% 30.11 in 10.0 mi SE 11.5 mph - N/A   Clear
4:55 AM 56.8 °F 44.6 °F 64% 30.11 in 10.0 mi SE 13.8 mph - N/A   Clear
5:15 AM 56.5 °F 44.6 °F 64% 30.10 in 10.0 mi SE 12.7 mph 18.4 mph N/A   Clear
5:35 AM 56.8 °F 44.8 °F 64% 30.11 in 10.0 mi SSE 12.7 mph - N/A   Scattered Clouds
5:55 AM 57.2 °F 45.0 °F 64% 30.11 in 10.0 mi SSE 16.1 mph - N/A   Mostly Cloudy
6:15 AM 57.7 °F 45.3 °F 63% 30.11 in 10.0 mi SSE 15.0 mph - N/A   Overcast
6:55 AM 57.6 °F 45.5 °F 64% 30.11 in 10.0 mi SE 13.8 mph - N/A   Mostly Cloudy
7:15 AM 58.1 °F 45.9 °F 64% 30.11 in 10.0 mi SE 13.8 mph 20.7 mph N/A   Overcast
7:55 AM 59.7 °F 46.4 °F 61% 30.12 in 10.0 mi SSE 18.4 mph 25.3 mph N/A   Overcast
8:15 AM 60.1 °F 46.8 °F 61% 30.12 in 10.0 mi SSE 18.4 mph 23.0 mph N/A   Overcast
8:55 AM 60.8 °F 47.3 °F 61% 30.12 in 10.0 mi SSE 18.4 mph 24.2 mph N/A   Overcast
9:15 AM 61.0 °F 47.8 °F 62% 30.11 in 10.0 mi SSE 19.6 mph 25.3 mph N/A   Overcast
9:35 AM 61.9 °F 48.2 °F 61% 30.11 in 10.0 mi SSE 17.3 mph 26.5 mph N/A   Overcast
9:55 AM 62.6 °F 48.4 °F 60% 30.11 in 10.0 mi SSE 20.7 mph 25.3 mph N/A   Overcast
10:15 AM 64.2 °F 49.6 °F 59% 30.10 in 10.0 mi SSE 20.7 mph 27.6 mph N/A   Overcast
10:35 AM 66.9 °F 50.4 °F 55% 30.10 in 10.0 mi SSE 21.9 mph 27.6 mph N/A   Overcast
10:55 AM 68.0 °F 50.9 °F 54% 30.09 in 10.0 mi SSE 21.9 mph 27.6 mph N/A   Mostly Cloudy
11:15 AM 68.0 °F 51.4 °F 55% 30.07 in 10.0 mi SSE 20.7 mph 26.5 mph N/A   Mostly Cloudy
11:35 AM 66.7 °F 50.9 °F 57% 30.06 in 10.0 mi SSE 27.6 mph 34.5 mph N/A   Overcast
11:55 AM 66.6 °F 50.9 °F 57% 30.05 in 10.0 mi SSE 20.7 mph 31.1 mph N/A   Overcast
12:15 PM 67.1 °F 50.7 °F 56% 30.04 in 10.0 mi SSE 20.7 mph 29.9 mph N/A   Mostly Cloudy
12:35 PM 67.1 °F 50.5 °F 55% 30.02 in 10.0 mi SE 21.9 mph 32.2 mph N/A   Mostly Cloudy
12:55 PM 67.5 °F 51.1 °F 56% 30.01 in 10.0 mi SSE 21.9 mph 27.6 mph N/A   Scattered Clouds
1:15 PM 67.6 °F 50.9 °F 55% 30.01 in 10.0 mi SSE 19.6 mph 28.8 mph N/A   Clear
1:35 PM 68.0 °F 51.6 °F 56% 30.01 in 10.0 mi SSE 23.0 mph 33.4 mph N/A   Scattered Clouds
1:55 PM 68.0 °F 51.4 °F 55% 30.00 in 10.0 mi SSE 24.2 mph 33.4 mph N/A   Scattered Clouds
2:15 PM 68.2 °F 51.6 °F 55% 29.99 in 10.0 mi SSE 21.9 mph 29.9 mph N/A   Scattered Clouds
2:35 PM 68.4 °F 50.9 °F 54% 29.98 in 10.0 mi SSE 21.9 mph 29.9 mph N/A   Clear
2:55 PM 68.0 °F 50.0 °F 52% 29.98 in 10.0 mi SE 21.9 mph 27.6 mph N/A   Clear
3:15 PM 68.0 °F 49.3 °F 51% 29.96 in 10.0 mi SE 23.0 mph 29.9 mph N/A   Clear
3:35 PM 67.6 °F 48.9 °F 51% 29.96 in 10.0 mi SE 24.2 mph 34.5 mph N/A   Clear
3:55 PM 67.1 °F 48.9 °F 52% 29.96 in 10.0 mi SE 20.7 mph 28.8 mph N/A   Clear
4:15 PM 67.1 °F 48.2 °F 51% 29.95 in 10.0 mi SE 23.0 mph 32.2 mph N/A   Clear
4:35 PM 66.4 °F 48.6 °F 53% 29.94 in 10.0 mi SE 18.4 mph 28.8 mph N/A   Clear
4:55 PM 66.6 °F 48.6 °F 52% 29.95 in 10.0 mi SE 19.6 mph 28.8 mph N/A   Clear
5:15 PM 66.6 °F 49.1 °F 53% 29.93 in 10.0 mi SE 18.4 mph 24.2 mph N/A   Clear
5:35 PM 67.1 °F 49.5 °F 53% 29.93 in 10.0 mi SE 20.7 mph 27.6 mph N/A   Mostly Cloudy
5:55 PM 67.8 °F 49.5 °F 52% 29.95 in 10.0 mi SSE 17.3 mph 24.2 mph N/A   Overcast
6:15 PM 68.0 °F 49.6 °F 52% 29.94 in 10.0 mi SSE 20.7 mph 27.6 mph N/A   Overcast
6:35 PM 68.0 °F 49.3 °F 51% 29.94 in 10.0 mi SSE 17.3 mph 25.3 mph N/A   Overcast
6:55 PM 67.3 °F 49.3 °F 52% 29.94 in 10.0 mi SSE 16.1 mph 33.4 mph N/A   Mostly Cloudy
7:15 PM 66.9 °F 48.7 °F 52% 29.96 in 10.0 mi South 15.0 mph 21.9 mph N/A   Overcast
7:35 PM 66.6 °F 48.6 °F 52% 29.96 in 10.0 mi South 19.6 mph 24.2 mph N/A   Overcast
7:55 PM 65.1 °F 50.2 °F 58% 29.95 in 10.0 mi SSE 13.8 mph 21.9 mph N/A   Overcast
8:15 PM 65.7 °F 49.5 °F 56% 29.96 in 10.0 mi SSE 16.1 mph 24.2 mph N/A   Overcast
8:35 PM 66.2 °F 49.1 °F 54% 29.95 in 10.0 mi SSE 17.3 mph 24.2 mph N/A   Overcast
8:55 PM 65.8 °F 51.1 °F 59% 29.96 in 10.0 mi SSE 20.7 mph 32.2 mph N/A   Overcast
9:35 PM 62.8 °F 54.9 °F 75% 29.97 in 10.0 mi South 20.7 mph 25.3 mph N/A   Light Drizzle
9:55 PM 62.2 °F 55.8 °F 79% 29.98 in 10.0 mi South 16.1 mph 25.3 mph N/A Rain Rain
10:15 PM 61.3 °F 56.8 °F 85% 29.98 in 7.0 mi SSW 16.1 mph 20.7 mph 0.01 in Rain Rain
10:35 PM 56.3 °F 55.2 °F 96% 29.99 in 5.0 mi West 10.4 mph - 0.07 in Rain Rain
10:55 PM 55.0 °F 54.7 °F 99% 30.00 in 5.0 mi WNW 9.2 mph - 0.10 in Rain Rain
11:15 PM 54.5 °F 54.5 °F 100% 30.00 in 5.0 mi Calm Calm - 0.03 in Rain Rain
11:55 PM 54.1 °F 54.1 °F 100% 30.01 in 4.0 mi Calm Calm - 0.18 in Rain Heavy Rain